Location: Chochol
(49.7771°N, 14.9780°E)
Time: 13:16:24
(UTC+00:00)

Terra - Pass Details

Date: 09 April 2020
Orbit: 701 x 703 km, 98.2° (Epoch: 28 May)

Event Time Altitude Azimuth Distance (km) Brightness Sun altitude
Exits shadow 22:08:18 20° 278° (W) 1,621 3.9 -31.1°
Drops below altitude 10° 22:11:18 10° 317° (NW) 2,182 5.0 -31.2°
Sets 22:14:09 0° 334° (NNW) 3,107 6.2 -31.3°
